Temp
-12 -12 -12 -12 -12 -12 -12 -11 -12 -12 -11 -12 -12 -11 -11 -11 -12 -12 -12 -12 -13 -14 -14 -15 -16 -16 -17 -17 -18 -18 -18 -19 -20 -20 -20 -20 -20 -21 -21 -20 -19 -18 -17 -16
-12 -12 -12 -12 -12 -12 -12 -12 -12 -12 -11 -12 -12 -12 -12 -12 -12 -12 -12 -12 -13 -14 -14 -15 -16 -17 -17 -17 -18 -18 -18 -18 -19 -20 -20 -20 -20 -20 -20 -20 -19 -18 -17 -16
-12 -12 -12 -12 -12 -12 -12 -12 -12 -11 -12 -12 -12 -12 -12 -12 -12 -12 -12 -12 -13 -14 -14 -15 -16 -17 -17 -17 -17 -17 -18 -19 -19 -20 -20 -20 -20 -20 -19 -19 -19 -18 -17 -16
-12 -13 -13 -13 -13 -12 -12 -12 -12 -12 -12 -12 -12 -12 -12 -12 -12 -12 -12 -12 -13 -14 -14 -14 -16 -16 -17 -17 -17 -17 -18 -19 -20 -20 -20 -20 -20 -19 -19 -19 -18 -18 -18 -17
-13 -13 -13 -13 -13 -13 -12 -12 -12 -12 -12 -12 -12 -12 -12 -12 -13 -12 -12 -13 -13 -14 -14 -14 -16 -16 -16 -17 -17 -18 -18 -19 -19 -20 -20 -20 -19 -18 -19 -19 -18 -18 -18 -17
-13 -13 -13 -13 -13 -13 -13 -12 -12 -12 -12 -12 -12 -12 -12 -12 -13 -12 -13 -12 -13 -14 -14 -14 -15 -16 -16 -16 -17 -18 -17 -18 -18 -18 -18 -19 -19 -18 -18 -18 -18 -17 -16 -16
-13 -13 -13 -13 -13 -13 -13 -13 -12 -12 -12 -12 -12 -12 -12 -12 -12 -12 -13 -12 -13 -14 -14 -14 -15 -16 -16 -16 -16 -17 -18 -18 -16 -17 -18 -19 -19 -19 -18 -18 -18 -17 -16 -15
-13 -13 -13 -13 -13 -13 -13 -13 -13 -12 -12 -12 -12 -12 -12 -12 -13 -13 -13 -12 -12 -13 -14 -14 -14 -15 -16 -16 -16 -16 -18 -17 -18 -17 -17 -18 -18 -18 -18 -18 -18 -18 -17 -15
-13 -13 -13 -13 -13 -13 -13 -13 -13 -13 -13 -12 -12 -13 -13 -13 -13 -13 -13 -12 -12 -13 -14 -14 -14 -14 -15 -16 -16 -16 -17 -18 -17 -17 -17 -17 -17 -18 -17 -17 -17 -17 -16 -15
-14 -13 -13 -13 -13 -13 -13 -14 -14 -13 -13 -12 -13 -13 -13 -13 -13 -13 -13 -13 -13 -12 -13 -14 -14 -14 -14 -15 -16 -16 -16 -17 -17 -16 -16 -17 -16 -16 -16 -15 -16 -15 -15 -15
-14 -13 -13 -13 -13 -13 -13 -13 -14 -14 -14 -13 -13 -13 -13 -13 -13 -13 -13 -13 -13 -13 -12 -13 -14 -14 -14 -14 -15 -15 -16 -16 -16 -17 -16 -16 -16 -15 -15 -15 -15 -15 -14 -14
-15 -14 -13 -13 -13 -13 -13 -13 -14 -14 -14 -14 -13 -13 -14 -14 -13 -13 -13 -12 -13 -12 -13 -12 -13 -14 -14 -14 -14 -15 -15 -16 -15 -16 -16 -16 -16 -15 -15 -15 -15 -14 -14 -14
-15 -14 -14 -13 -13 -14 -13 -13 -13 -13 -13 -14 -13 -14 -14 -14 -13 -13 -13 -13 -12 -12 -13 -12 -12 -13 -13 -14 -14 -14 -14 -15 -15 -15 -15 -16 -16 -16 -16 -16 -16 -15 -15 -15
-15 -14 -14 -14 -14 -14 -14 -13 -13 -13 -13 -14 -13 -14 -15 -13 -13 -13 -13 -13 -13 -12 -13 -13 -12 -13 -13 -13 -14 -14 -14 -15 -15 -15 -15 -15 -15 -16 -16 -16 -16 -16 -16 -15
-14 -14 -15 -14 -14 -14 -14 -14 -13 -13 -14 -13 -14 -14 -15 -14 -13 -14 -13 -13 -13 -13 -13 -13 -13 -12 -12 -13 -13 -14 -14 -14 -15 -15 -15 -15 -15 -15 -15 -16 -16 -16 -16 -16
-15 -14 -15 -14 -14 -14 -14 -14 -14 -14 -14 -14 -13 -14 -14 -14 -13 -14 -13 -13 -13 -13 -13 -13 -13 -13 -12 -13 -13 -13 -13 -14 -15 -15 -15 -15 -15 -15 -16 -16 -16 -16 -16 -16
-15 -15 -16 -15 -15 -14 -14 -14 -14 -14 -14 -14 -14 -14 -14 -14 -14 -14 -14 -14 -14 -14 -13 -13 -13 -13 -13 -12 -13 -13 -13 -13 -14 -14 -15 -15 -15 -15 -15 -15 -16 -15 -15 -16
-15 -16 -16 -16 -15 -14 -15 -15 -14 -14 -14 -14 -14 -14 -14 -14 -14 -14 -14 -14 -14 -14 -14 -13 -13 -13 -13 -13 -13 -13 -13 -13 -13 -13 -14 -14 -15 -15 -15 -15 -15 -15 -15 -15
-15 -16 -16 -15 -15 -13 -14 -15 -15 -14 -15 -15 -14 -14 -14 -14 -14 -14 -14 -14 -14 -14 -14 -14 -14 -13 -13 -13 -13 -13 -13 -13 -13 -13 -13 -14 -14 -14 -14 -15 -15 -15 -15 -15
-15 -16 -16 -15 -14 -14 -14 -15 -15 -14 -14 -15 -15 -14 -14 -14 -14 -14 -14 -14 -14 -14 -14 -14 -14 -14 -13 -14 -14 -13 -13 -13 -13 -13 -13 -13 -13 -13 -14 -14 -14 -15 -15 -15
-15 -15 -15 -16 -14 -13 -15 -16 -15 -15 -15 -14 -14 -15 -14 -14 -14 -14 -15 -14 -14 -14 -15 -15 -15 -14 -14 -14 -14 -14 -14 -14 -14 -13 -13 -13 -13 -13 -13 -13 -14 -14 -14 -14
-15 -16 -15 -15 -14 -13 -16 -16 -15 -15 -15 -14 -14 -14 -14 -14 -14 -14 -14 -15 -15 -15 -15 -15 -15 -15 -15 -14 -14 -14 -14 -14 -14 -14 -14 -14 -14 -13 -14 -14 -13 -13 -14 -14
-15 -15 -15 -15 -15 -16 -16 -15 -15 -16 -16 -15 -14 -14 -14 -14 -14 -14 -14 -14 -15 -15 -15 -16 -15 -15 -15 -15 -15 -14 -14 -14 -14 -14 -14 -14 -14 -14 -14 -14 -14 -14 -14 -14
-15 -15 -15 -15 -15 -15 -16 -16 -16 -15 -15 -15 -15 -15 -14 -14 -15 -15 -15 -15 -15 -15 -15 -15 -16 -16 -15 -15 -16 -15 -15 -15 -15 -14 -14 -14 -14 -14 -14 -14 -14 -14 -14 -14
-15 -15 -15 -14 -14 -16 -16 -16 -16 -15 -15 -14 -15 -15 -15 -15 -15 -15 -15 -15 -15 -15 -15 -15 -16 -16 -16 -16 -16 -16 -15 -15 -15 -15 -15 -15 -15 -15 -15 -15 -15 -15 -15 -15
-15 -15 -15 -15 -17 -15 -16 -15 -15 -15 -15 -15 -15 -15 -15 -15 -15 -15 -15 -15 -16 -15 -15 -15 -15 -15 -16 -16 -16 -16 -16 -16 -16 -16 -15 -15 -15 -15 -15 -15 -15 -15 -15 -15
Height
5811 5811 5811 5810 5809 5808 5807 5805 5802 5801 5800 5798 5796 5792 5787 5782 5777 5771 5764 5758 5747 5739 5728 5713 5701 5691 5680 5670 5661 5655 5648 5641 5636 5634 5633 5631 5629 5629 5632 5636 5647 5658 5668 5678
5808 5807 5806 5805 5804 5804 5803 5802 5800 5798 5796 5795 5793 5789 5785 5779 5775 5769 5762 5754 5745 5737 5726 5713 5701 5691 5680 5670 5661 5652 5643 5637 5634 5630 5629 5629 5628 5629 5630 5634 5641 5652 5663 5672
5802 5802 5800 5800 5800 5799 5798 5797 5796 5794 5791 5790 5789 5787 5783 5777 5772 5766 5759 5752 5744 5735 5726 5711 5701 5690 5681 5670 5659 5650 5640 5634 5630 5627 5626 5627 5628 5629 5631 5636 5642 5651 5658 5668
5798 5797 5796 5795 5794 5794 5794 5793 5792 5789 5788 5786 5785 5785 5779 5775 5770 5764 5758 5751 5743 5734 5725 5712 5701 5691 5682 5671 5658 5648 5638 5630 5626 5625 5624 5625 5626 5629 5632 5636 5642 5650 5658 5667
5795 5793 5792 5791 5790 5789 5789 5788 5788 5786 5784 5783 5781 5780 5776 5773 5768 5762 5756 5751 5742 5734 5724 5713 5702 5693 5682 5671 5659 5648 5637 5629 5624 5621 5621 5623 5625 5628 5633 5636 5643 5650 5659 5668
5790 5788 5787 5786 5786 5786 5785 5784 5783 5782 5780 5779 5777 5775 5773 5770 5766 5760 5755 5749 5741 5734 5725 5715 5704 5695 5685 5674 5661 5651 5642 5633 5627 5623 5621 5623 5626 5629 5634 5637 5644 5649 5660 5663
5785 5785 5783 5782 5782 5782 5781 5780 5779 5779 5777 5775 5773 5772 5769 5766 5763 5758 5754 5748 5742 5734 5726 5718 5708 5697 5689 5678 5668 5657 5646 5638 5631 5628 5626 5624 5626 5630 5635 5640 5643 5647 5657 5666
5780 5780 5779 5778 5778 5778 5777 5776 5775 5773 5773 5772 5769 5768 5766 5763 5760 5756 5753 5748 5742 5735 5728 5721 5712 5701 5692 5683 5673 5662 5653 5644 5638 5633 5632 5630 5630 5634 5638 5642 5647 5649 5653 5661
5774 5775 5774 5774 5773 5773 5773 5771 5771 5769 5769 5767 5766 5764 5763 5760 5758 5755 5752 5747 5742 5735 5730 5723 5715 5707 5697 5688 5680 5670 5661 5652 5644 5640 5637 5636 5636 5638 5640 5646 5651 5656 5661 5666
5768 5768 5770 5769 5768 5768 5767 5767 5766 5765 5764 5764 5763 5760 5759 5758 5756 5753 5750 5746 5742 5737 5731 5725 5718 5712 5704 5693 5686 5679 5670 5661 5653 5647 5644 5643 5643 5646 5649 5652 5654 5658 5664 5670
5761 5763 5766 5764 5763 5762 5762 5761 5760 5760 5760 5759 5759 5758 5756 5754 5753 5751 5748 5745 5742 5738 5732 5727 5721 5715 5710 5702 5693 5685 5678 5672 5664 5657 5653 5651 5650 5651 5654 5657 5659 5660 5663 5668
5754 5754 5756 5757 5756 5756 5756 5755 5754 5754 5755 5753 5754 5756 5752 5751 5750 5749 5747 5744 5741 5738 5733 5728 5723 5718 5713 5709 5701 5693 5686 5680 5674 5669 5663 5661 5658 5659 5659 5659 5660 5663 5665 5667
5746 5747 5748 5749 5751 5750 5749 5749 5749 5749 5747 5749 5748 5751 5747 5746 5746 5747 5746 5742 5740 5737 5734 5730 5725 5721 5715 5711 5707 5700 5694 5688 5681 5677 5673 5670 5668 5666 5664 5663 5664 5664 5665 5668
5737 5738 5740 5742 5742 5743 5743 5743 5743 5744 5744 5743 5744 5744 5739 5740 5743 5744 5743 5741 5738 5736 5733 5730 5727 5723 5718 5714 5710 5707 5701 5696 5690 5685 5680 5678 5675 5673 5671 5669 5668 5668 5669 5671
5729 5729 5731 5732 5733 5735 5737 5737 5737 5739 5738 5738 5740 5739 5735 5736 5739 5740 5739 5738 5736 5735 5732 5730 5727 5724 5721 5717 5713 5709 5705 5701 5698 5693 5688 5684 5681 5680 5678 5676 5675 5674 5675 5676
5721 5720 5721 5724 5725 5726 5730 5732 5732 5733 5733 5732 5733 5735 5729 5733 5734 5734 5734 5734 5733 5733 5731 5729 5727 5725 5722 5719 5716 5713 5709 5705 5702 5699 5696 5692 5688 5685 5684 5683 5682 5681 5680 5680
5711 5712 5713 5715 5716 5716 5722 5727 5724 5726 5727 5726 5728 5727 5726 5728 5729 5729 5729 5730 5729 5729 5729 5728 5726 5725 5722 5720 5718 5716 5712 5709 5705 5702 5701 5698 5696 5693 5690 5687 5687 5687 5687 5687
5700 5703 5703 5706 5709 5707 5718 5718 5717 5717 5720 5720 5722 5721 5721 5721 5724 5723 5723 5725 5726 5725 5726 5725 5724 5724 5722 5720 5718 5717 5715 5712 5709 5706 5704 5702 5700 5699 5696 5695 5693 5692 5690 5690
5691 5694 5695 5695 5699 5700 5707 5710 5711 5709 5716 5711 5715 5715 5715 5716 5717 5717 5718 5719 5721 5721 5722 5722 5722 5721 5720 5719 5717 5716 5715 5713 5711 5709 5707 5705 5703 5702 5701 5700 5699 5698 5697 5697
5681 5686 5687 5687 5689 5690 5700 5703 5703 5703 5710 5706 5705 5707 5709 5711 5711 5711 5713 5713 5714 5715 5716 5718 5718 5718 5717 5717 5716 5715 5714 5713 5711 5710 5709 5707 5705 5704 5703 5702 5701 5700 5699 5699
5673 5675 5677 5678 5678 5681 5693 5694 5695 5698 5702 5700 5699 5699 5702 5704 5704 5704 5705 5707 5708 5709 5710 5711 5713 5713 5713 5713 5713 5712 5712 5711 5710 5709 5708 5708 5707 5705 5704 5704 5703 5701 5701 5700
5662 5667 5667 5669 5670 5672 5685 5685 5687 5689 5691 5692 5692 5692 5693 5695 5697 5697 5698 5700 5701 5703 5704 5705 5706 5707 5708 5708 5708 5708 5708 5707 5706 5706 5706 5706 5705 5704 5703 5702 5701 5701 5700 5700
5648 5657 5660 5663 5664 5667 5667 5677 5679 5680 5683 5684 5685 5685 5687 5689 5691 5691 5692 5693 5694 5695 5697 5698 5700 5701 5702 5703 5703 5702 5702 5702 5702 5702 5701 5701 5701 5701 5700 5699 5698 5698 5697 5697
5638 5644 5648 5649 5652 5656 5660 5665 5670 5672 5671 5672 5675 5678 5680 5681 5683 5684 5685 5687 5688 5688 5689 5690 5691 5693 5695 5696 5697 5697 5697 5697 5696 5696 5696 5696 5696 5695 5695 5694 5694 5693 5693 5692
5626 5631 5635 5638 5638 5647 5653 5655 5656 5658 5661 5662 5667 5670 5671 5673 5674 5675 5676 5679 5680 5681 5681 5682 5683 5684 5686 5687 5689 5690 5690 5690 5690 5689 5689 5690 5691 5690 5689 5689 5688 5688 5687 5687
5614 5620 5625 5631 5632 5630 5639 5643 5646 5649 5652 5653 5656 5659 5661 5663 5665 5667 5668 5670 5671 5672 5673 5674 5675 5675 5677 5679 5680 5681 5681 5682 5683 5682 5682 5682 5682 5682 5682 5682 5682 5681 5681 5679
Wind_Speed
20 19 21 22 22 20 19 18 17 18 17 17 19 23 26 30 32 36 41 44 47 48 49 53 48 41 36 30 28 30 25 23 15 15 14 9 10 16 22 34 48 50 50 49
20 19 22 23 22 21 20 18 18 18 18 17 19 22 25 28 31 36 40 43 46 48 49 50 45 40 39 38 35 33 27 21 16 17 16 10 4 10 16 22 33 43 46 49
19 20 23 23 22 21 20 18 18 19 20 19 19 19 23 27 31 34 38 41 45 45 46 47 42 41 41 42 38 33 29 20 17 16 15 14 8 8 14 21 29 35 33 42
19 22 23 20 19 20 19 18 19 19 18 20 20 17 23 25 28 31 36 39 42 42 44 50 40 40 42 45 39 35 37 21 15 17 13 14 13 12 13 20 25 29 27 31
18 20 20 19 19 18 17 18 19 19 19 18 19 19 21 22 24 29 33 35 40 40 42 49 39 40 43 46 40 40 27 18 16 10 6 9 17 16 16 18 21 26 28 25
18 17 17 17 17 18 17 17 18 18 17 17 18 18 19 20 22 26 30 33 37 38 40 47 45 38 42 47 42 43 25 18 21 13 5 8 10 19 17 17 24 34 30 32
18 18 18 18 17 18 17 17 18 16 17 17 17 18 19 20 21 24 26 29 33 35 38 42 49 37 37 43 43 40 32 20 24 24 18 9 7 16 18 21 32 37 20 32
22 19 19 18 18 17 17 16 17 16 16 16 19 19 17 19 19 20 22 25 29 33 35 37 45 49 34 37 43 38 40 25 19 17 15 15 14 9 11 15 23 30 5 36
23 20 20 19 19 19 18 18 18 18 16 16 17 18 16 17 16 16 19 22 26 30 32 34 39 45 47 34 37 42 37 37 21 15 14 21 18 20 16 11 22 12 17 37
26 24 21 22 19 20 21 21 20 19 19 17 14 16 17 15 16 14 14 17 21 26 29 32 33 38 45 45 33 34 40 37 31 24 20 15 17 19 18 19 10 14 23 21
29 27 24 25 24 21 22 24 24 23 21 19 15 14 16 15 15 12 11 11 16 21 26 29 32 31 37 43 46 34 32 37 34 37 22 20 17 10 11 10 12 25 19 22
31 30 27 26 28 26 22 23 25 25 23 21 21 14 17 17 14 13 9 9 11 15 20 26 29 31 28 34 40 45 39 29 32 32 29 28 29 26 17 4 8 14 18 30
32 31 29 26 26 28 25 24 25 23 22 19 18 14 19 20 16 12 9 9 8 11 14 19 26 29 29 29 30 35 39 44 30 25 27 25 23 22 20 20 22 12 13 14
32 34 32 30 29 28 27 24 25 23 22 18 15 14 22 21 15 10 11 10 8 8 9 13 18 24 28 29 28 29 31 35 37 42 24 20 22 19 18 16 17 21 23 19
32 34 34 33 31 29 29 26 26 22 23 22 16 15 23 23 13 14 14 13 11 9 7 8 12 17 22 26 26 27 27 29 31 32 36 34 15 17 20 17 16 16 17 17
32 33 32 31 35 35 30 25 27 25 23 24 19 13 26 23 18 17 19 17 13 11 7 6 6 9 14 18 23 23 24 25 27 28 28 31 35 31 13 14 18 18 17 16
35 35 33 31 34 37 33 23 30 27 23 24 18 18 23 21 19 18 19 19 17 14 10 8 6 6 7 11 15 19 20 22 22 25 26 27 26 29 31 25 14 10 11 12
38 35 38 36 34 40 26 23 28 30 26 25 21 22 19 22 20 21 19 20 20 18 14 10 8 7 6 6 8 12 15 17 17 17 19 22 24 23 23 25 26 25 21 15
40 36 38 41 39 41 30 24 25 28 24 31 24 24 22 19 21 26 20 18 19 22 19 16 11 9 10 9 7 7 10 11 13 13 12 14 16 18 19 18 16 17 17 18
43 38 38 41 38 35 30 24 26 26 18 28 31 30 27 20 19 25 22 21 20 21 21 20 17 13 12 14 12 10 9 9 9 10 10 9 9 10 13 15 15 14 11 10
44 43 41 40 42 37 24 28 28 26 23 24 26 27 26 23 19 23 24 23 22 22 23 22 21 18 14 16 16 16 14 12 10 9 9 8 7 4 4 7 9 11 12 11
45 47 46 45 46 43 27 26 28 26 25 25 23 20 21 21 20 20 22 26 27 26 26 23 24 23 19 19 18 20 20 17 17 15 13 12 10 10 10 9 9 9 10 10
48 45 45 46 44 41 42 28 31 29 30 29 29 27 26 22 23 23 20 21 23 25 29 25 23 24 23 21 21 22 22 22 21 21 20 18 17 15 14 13 11 11 13 14
48 48 46 43 43 41 42 35 32 34 36 35 31 26 24 25 24 27 27 28 26 25 24 26 26 25 24 25 25 26 25 24 24 25 24 25 23 21 19 17 17 17 18 17
46 50 47 44 42 34 35 36 39 38 35 36 32 30 28 26 27 26 28 29 29 29 28 28 29 30 27 28 27 27 29 28 28 28 28 27 28 29 28 26 25 24 23 23
49 47 45 45 38 39 35 35 36 35 33 31 32 30 30 28 29 28 28 30 31 31 31 31 30 31 32 32 32 30 30 31 32 33 32 30 29 31 32 32 31 31 30 30
Wind_Direction
262 269 277 278 276 276 279 286 289 286 288 296 307 313 322 328 330 332 335 342 345 354 357 358 3 5 4 356 344 336 327 322 299 265 276 298 250 239 234 226 221 213 216 218
262 275 284 283 276 275 275 281 289 286 288 296 304 313 320 326 329 331 335 347 348 356 1 1 5 7 3 356 347 338 325 309 317 275 263 276 272 223 208 200 199 200 209 215
260 273 283 283 276 273 273 277 285 285 286 293 300 310 318 323 328 332 339 352 350 359 3 5 6 8 3 359 352 345 333 317 305 316 261 254 248 220 205 199 194 199 205 209
269 276 280 276 274 272 275 278 284 285 285 289 295 306 312 320 328 334 344 354 353 1 6 7 6 10 6 3 357 355 348 359 305 295 287 242 221 214 202 205 199 194 199 188
268 277 278 274 273 270 272 276 281 284 287 290 293 301 308 319 327 336 346 356 356 2 9 10 8 13 10 6 5 1 4 347 346 308 273 241 220 204 195 203 198 178 177 177
266 278 274 272 275 274 272 275 280 286 287 288 291 299 304 319 329 340 347 360 359 2 12 13 14 13 14 10 11 11 10 30 54 39 30 234 222 195 194 185 171 162 177 179
266 274 282 274 275 273 272 275 279 283 287 289 290 295 303 319 333 340 345 2 2 3 14 16 17 16 17 16 15 12 21 32 45 46 61 123 186 193 194 179 185 176 169 173
261 265 272 281 270 271 272 271 279 286 290 288 290 291 302 314 329 335 342 2 6 4 15 17 21 19 18 19 20 19 27 19 42 41 50 73 85 126 199 197 200 195 194 164
259 261 268 273 275 269 264 267 272 282 294 297 290 289 291 306 318 330 343 2 10 8 11 17 25 22 24 20 23 24 23 31 33 55 55 83 87 102 97 163 168 192 170 176
265 267 268 266 272 270 264 263 267 276 285 294 294 285 284 297 307 322 341 2 14 14 9 15 20 24 24 30 24 26 28 26 44 47 59 75 84 86 109 164 172 187 188 180
265 266 268 269 266 267 268 265 263 266 275 282 288 285 276 282 295 311 331 357 9 16 12 10 14 23 27 29 33 29 29 33 36 50 67 70 85 105 132 150 180 178 190 201
266 263 266 264 267 266 262 265 262 265 265 270 278 280 277 272 279 291 312 334 351 11 15 11 13 15 23 32 32 36 35 33 37 43 51 68 80 80 90 126 137 189 203 210
269 264 263 260 264 262 259 263 267 265 264 265 263 278 270 263 263 275 294 312 339 360 13 14 13 11 14 23 34 34 34 38 39 42 47 50 60 75 74 71 78 120 151 170
270 264 262 260 262 260 256 260 267 267 274 262 271 258 269 261 262 270 275 294 316 339 5 13 16 12 11 16 25 35 38 37 38 42 43 47 53 58 63 70 75 75 82 98
266 265 261 257 260 262 255 255 261 268 273 269 250 255 252 269 265 254 263 276 293 315 334 360 15 16 9 13 17 19 33 38 37 40 41 45 50 58 64 66 73 82 93 97
260 261 263 250 259 262 260 254 261 268 269 273 269 260 255 262 265 249 254 265 277 292 304 313 354 11 14 8 11 15 17 25 34 41 43 45 45 51 62 69 76 78 83 92
254 258 262 249 251 257 259 254 255 259 267 274 275 268 257 262 264 258 255 261 266 274 282 285 297 325 7 3 4 8 12 16 22 28 34 43 46 49 47 51 62 73 81 84
247 253 256 259 250 252 259 257 256 259 262 263 266 271 268 259 260 255 250 256 262 267 267 271 271 279 299 327 346 351 2 5 14 25 26 29 31 41 52 52 52 56 59 66
242 247 256 260 263 255 254 252 255 261 255 262 262 260 266 269 256 257 251 255 261 266 265 265 263 265 273 282 297 319 331 347 356 4 13 27 26 23 30 42 52 57 55 56
242 247 250 259 263 260 254 260 254 255 260 257 263 263 267 271 267 255 253 251 252 258 260 260 263 261 266 268 272 277 286 303 319 329 339 360 12 13 16 17 27 36 41 39
246 243 247 255 261 263 276 258 259 256 252 256 264 268 270 266 266 259 250 252 251 250 253 254 258 259 260 265 266 269 265 267 273 286 299 297 303 329 338 334 346 5 356 2
243 243 243 251 258 265 274 259 261 258 255 253 259 268 268 259 259 257 253 251 253 255 256 254 256 257 257 260 261 263 265 261 261 259 261 270 273 281 285 275 287 299 304 312
247 244 247 250 254 258 264 264 260 264 264 261 260 262 265 264 253 254 253 255 255 255 258 246 254 259 261 257 257 258 258 260 260 260 256 255 257 262 264 271 274 272 277 284
243 243 246 245 241 250 260 266 267 268 267 254 256 265 265 258 258 252 254 257 258 255 253 247 245 254 255 255 258 259 258 257 258 261 262 257 255 253 249 253 255 261 264 265
240 240 243 240 241 243 253 258 260 264 269 269 263 263 272 261 257 254 251 256 258 258 256 255 255 247 248 250 252 256 257 258 258 259 261 262 260 259 257 255 256 257 258 261
241 243 246 250 243 240 246 253 258 258 264 266 262 261 262 262 255 256 255 254 258 260 262 261 256 253 246 247 251 251 252 253 254 259 261 261 261 262 262 262 261 262 263 264